Year,Month,Day,Hour,Minute,Value (Times are PST for temperature in C)
2019,08,05,00,00,14.40
2019,08,05,00,01,14.50
2019,08,05,00,02,14.50
2019,08,05,00,03,14.40
2019,08,05,00,04,14.50
2019,08,05,00,05,14.50
2019,08,05,00,06,14.50
2019,08,05,00,07,14.50
2019,08,05,00,08,14.50
2019,08,05,00,09,14.50
2019,08,05,00,10,14.50
2019,08,05,00,11,14.50
2019,08,05,00,12,14.60
2019,08,05,00,13,14.50
2019,08,05,00,14,14.50
2019,08,05,00,15,14.50
2019,08,05,00,16,14.50
2019,08,05,00,17,14.50
2019,08,05,00,18,14.50
2019,08,05,00,19,14.50
2019,08,05,00,20,14.50
2019,08,05,00,21,14.50
2019,08,05,00,22,14.50
2019,08,05,00,23,14.50
2019,08,05,00,24,14.50
2019,08,05,00,25,14.50
2019,08,05,00,26,14.50
2019,08,05,00,27,14.50
2019,08,05,00,28,14.50
2019,08,05,00,29,14.50
2019,08,05,00,30,14.60
2019,08,05,00,31,14.60
2019,08,05,00,32,14.70
2019,08,05,00,33,14.70
2019,08,05,00,34,14.70
2019,08,05,00,35,14.70
2019,08,05,00,36,14.70
2019,08,05,00,37,14.70
2019,08,05,00,38,14.80
2019,08,05,00,39,14.80
2019,08,05,00,40,14.80
2019,08,05,00,41,14.80
2019,08,05,00,42,14.80
2019,08,05,00,43,14.80
2019,08,05,00,44,14.90
2019,08,05,00,45,14.90
2019,08,05,00,46,14.90
2019,08,05,00,47,14.90
2019,08,05,00,48,14.90
2019,08,05,00,49,15.00
2019,08,05,00,50,15.00
2019,08,05,00,51,15.00
2019,08,05,00,52,15.00
2019,08,05,00,53,15.00
2019,08,05,00,54,15.00
2019,08,05,00,55,15.00
2019,08,05,00,56,15.00
2019,08,05,00,57,14.90
2019,08,05,00,58,14.90
2019,08,05,00,59,14.90
2019,08,05,01,00,14.90
2019,08,05,01,01,14.90
2019,08,05,01,02,14.90
2019,08,05,01,03,14.90
2019,08,05,01,04,14.90
2019,08,05,01,05,14.80
2019,08,05,01,06,14.80
2019,08,05,01,07,14.80
2019,08,05,01,08,14.80
2019,08,05,01,09,14.80
2019,08,05,01,10,14.80
2019,08,05,01,11,14.80
2019,08,05,01,12,14.70
2019,08,05,01,13,14.70
2019,08,05,01,14,14.70
2019,08,05,01,15,14.70
2019,08,05,01,16,14.60
2019,08,05,01,17,14.60
2019,08,05,01,18,14.60
2019,08,05,01,19,14.60
2019,08,05,01,20,14.60
2019,08,05,01,21,14.50
2019,08,05,01,22,14.50
2019,08,05,01,23,14.50
2019,08,05,01,24,14.50
2019,08,05,01,25,14.40
2019,08,05,01,26,14.40
2019,08,05,01,27,14.40
2019,08,05,01,28,14.40
2019,08,05,01,29,14.40
2019,08,05,01,30,14.40
2019,08,05,01,31,14.40
2019,08,05,01,32,14.30
2019,08,05,01,33,14.30
2019,08,05,01,34,14.30
2019,08,05,01,35,14.30
2019,08,05,01,36,14.30
2019,08,05,01,37,14.30
2019,08,05,01,38,14.30
2019,08,05,01,39,14.30
2019,08,05,01,40,14.30
2019,08,05,01,41,14.20
2019,08,05,01,42,14.20
2019,08,05,01,43,14.20
2019,08,05,01,44,14.20
2019,08,05,01,45,14.20
2019,08,05,01,46,14.20
2019,08,05,01,47,14.20
2019,08,05,01,48,14.10
2019,08,05,01,49,14.10
2019,08,05,01,50,14.10
2019,08,05,01,51,14.10
2019,08,05,01,52,14.10
2019,08,05,01,53,14.10
2019,08,05,01,54,14.00
2019,08,05,01,55,14.00
2019,08,05,01,56,14.00
2019,08,05,01,57,14.00
2019,08,05,01,58,14.00
2019,08,05,01,59,14.00
2019,08,05,02,00,14.00
2019,08,05,02,01,13.90
2019,08,05,02,02,13.90
2019,08,05,02,03,13.90
2019,08,05,02,04,13.90
2019,08,05,02,05,13.90
2019,08,05,02,06,13.90
2019,08,05,02,07,13.90
2019,08,05,02,08,13.90
2019,08,05,02,09,13.90
2019,08,05,02,10,13.90
2019,08,05,02,11,13.90
2019,08,05,02,12,13.90
2019,08,05,02,13,13.90
2019,08,05,02,14,13.90
2019,08,05,02,15,13.90
2019,08,05,02,16,13.90
2019,08,05,02,17,13.80
2019,08,05,02,18,13.90
2019,08,05,02,19,13.80
2019,08,05,02,20,13.80
2019,08,05,02,21,13.80
2019,08,05,02,22,13.80
2019,08,05,02,23,13.80
2019,08,05,02,24,13.80
2019,08,05,02,25,13.80
2019,08,05,02,26,13.80
2019,08,05,02,27,13.80
2019,08,05,02,28,13.80
2019,08,05,02,29,13.70
2019,08,05,02,30,13.70
2019,08,05,02,31,13.70
2019,08,05,02,32,13.70
2019,08,05,02,33,13.70
2019,08,05,02,34,13.60
2019,08,05,02,35,13.60
2019,08,05,02,36,13.60
2019,08,05,02,37,13.60
2019,08,05,02,38,13.60
2019,08,05,02,39,13.60
2019,08,05,02,40,13.60
2019,08,05,02,41,13.60
2019,08,05,02,42,13.60
2019,08,05,02,43,13.60
2019,08,05,02,44,13.60
2019,08,05,02,45,13.50
2019,08,05,02,46,13.50
2019,08,05,02,47,13.50
2019,08,05,02,48,13.50
2019,08,05,02,49,13.50
2019,08,05,02,50,13.50
2019,08,05,02,51,13.50
2019,08,05,02,52,13.50
2019,08,05,02,53,13.50
2019,08,05,02,54,13.40
2019,08,05,02,55,13.40
2019,08,05,02,56,13.40
2019,08,05,02,57,13.40
2019,08,05,02,58,13.40
2019,08,05,02,59,13.40
2019,08,05,03,00,13.40
2019,08,05,03,01,13.40
2019,08,05,03,02,13.40
2019,08,05,03,03,13.40
2019,08,05,03,04,13.40
2019,08,05,03,05,13.40
2019,08,05,03,06,13.50
2019,08,05,03,07,13.50
2019,08,05,03,08,13.50
2019,08,05,03,09,13.50
2019,08,05,03,10,13.60
2019,08,05,03,11,13.60
2019,08,05,03,12,13.60
2019,08,05,03,13,13.60
2019,08,05,03,14,13.60
2019,08,05,03,15,13.60
2019,08,05,03,16,13.60
2019,08,05,03,17,13.60
2019,08,05,03,18,13.60
2019,08,05,03,19,13.60
2019,08,05,03,20,13.60
2019,08,05,03,21,13.60
2019,08,05,03,22,13.60
2019,08,05,03,23,13.60
2019,08,05,03,24,13.60
2019,08,05,03,25,13.50
2019,08,05,03,26,13.50
2019,08,05,03,27,13.50
2019,08,05,03,28,13.50
2019,08,05,03,29,13.50
2019,08,05,03,30,13.40
2019,08,05,03,31,13.40
2019,08,05,03,32,13.40
2019,08,05,03,33,13.40
2019,08,05,03,34,13.40
2019,08,05,03,35,13.40
2019,08,05,03,36,13.40
2019,08,05,03,37,13.40
2019,08,05,03,38,13.40
2019,08,05,03,39,13.40
2019,08,05,03,40,13.40
2019,08,05,03,41,13.40
2019,08,05,03,42,13.40
2019,08,05,03,43,13.40
2019,08,05,03,44,13.40
2019,08,05,03,45,13.40
2019,08,05,03,46,13.40
2019,08,05,03,47,13.40
2019,08,05,03,48,13.40
2019,08,05,03,49,13.40
2019,08,05,03,50,13.40
2019,08,05,03,51,13.40
2019,08,05,03,52,13.40
2019,08,05,03,53,13.40
2019,08,05,03,54,13.40
2019,08,05,03,55,13.40
2019,08,05,03,56,13.40
2019,08,05,03,57,13.40
2019,08,05,03,58,13.40
2019,08,05,03,59,13.40
2019,08,05,04,00,13.40
2019,08,05,04,01,13.40
2019,08,05,04,02,13.40
2019,08,05,04,03,13.40
2019,08,05,04,04,13.40
2019,08,05,04,05,13.40
2019,08,05,04,06,13.40
2019,08,05,04,07,13.40
2019,08,05,04,08,13.40
2019,08,05,04,09,13.40
2019,08,05,04,10,13.40
2019,08,05,04,11,13.40
2019,08,05,04,12,13.50
2019,08,05,04,13,13.50
2019,08,05,04,14,13.50
2019,08,05,04,15,13.50
2019,08,05,04,16,13.50
2019,08,05,04,17,13.60
2019,08,05,04,18,13.60
2019,08,05,04,19,13.60
2019,08,05,04,20,13.60
2019,08,05,04,21,13.70
2019,08,05,04,22,13.70
2019,08,05,04,23,13.70
2019,08,05,04,24,13.70
2019,08,05,04,25,13.80
2019,08,05,04,26,13.80
2019,08,05,04,27,13.80
2019,08,05,04,28,13.90
2019,08,05,04,29,13.90
2019,08,05,04,30,13.90
2019,08,05,04,31,14.00
2019,08,05,04,32,14.10
2019,08,05,04,33,14.10
2019,08,05,04,34,14.10
2019,08,05,04,35,14.20
2019,08,05,04,36,14.20
2019,08,05,04,37,14.30
2019,08,05,04,38,14.30
2019,08,05,04,39,14.30
2019,08,05,04,40,14.40
2019,08,05,04,41,14.40
2019,08,05,04,42,14.40
2019,08,05,04,43,14.50
2019,08,05,04,44,14.50
2019,08,05,04,45,14.50
2019,08,05,04,46,14.60
2019,08,05,04,47,14.60
2019,08,05,04,48,14.60
2019,08,05,04,49,14.60
2019,08,05,04,50,14.70
2019,08,05,04,51,14.70
2019,08,05,04,52,14.70
2019,08,05,04,53,14.80
2019,08,05,04,54,14.80
2019,08,05,04,55,14.80
2019,08,05,04,56,14.80
2019,08,05,04,57,14.90
2019,08,05,04,58,14.90
2019,08,05,04,59,14.90
2019,08,05,05,00,15.00
2019,08,05,05,01,15.00
2019,08,05,05,02,15.00
2019,08,05,05,03,15.10
2019,08,05,05,04,15.10
2019,08,05,05,05,15.10
2019,08,05,05,06,15.10
2019,08,05,05,07,15.10
2019,08,05,05,08,15.10
2019,08,05,05,09,15.20
2019,08,05,05,10,15.20
2019,08,05,05,11,15.20
2019,08,05,05,12,15.20
2019,08,05,05,13,15.20
2019,08,05,05,14,15.20
2019,08,05,05,15,15.20
2019,08,05,05,16,15.20
2019,08,05,05,17,15.20
2019,08,05,05,18,15.20
2019,08,05,05,19,15.20
2019,08,05,05,20,15.20
2019,08,05,05,21,15.20
2019,08,05,05,22,15.30
2019,08,05,05,23,15.30
2019,08,05,05,24,15.30
2019,08,05,05,25,15.30
2019,08,05,05,26,15.30
2019,08,05,05,27,15.30
2019,08,05,05,28,15.30
2019,08,05,05,29,15.30
2019,08,05,05,30,15.30
2019,08,05,05,31,15.30
2019,08,05,05,32,15.30
2019,08,05,05,33,15.30
2019,08,05,05,34,15.30
2019,08,05,05,35,15.30
2019,08,05,05,36,15.30
2019,08,05,05,37,15.30
2019,08,05,05,38,15.40
2019,08,05,05,39,15.40
2019,08,05,05,40,15.40
2019,08,05,05,41,15.40
2019,08,05,05,42,15.40
2019,08,05,05,43,15.40
2019,08,05,05,44,15.40
2019,08,05,05,45,15.40
2019,08,05,05,46,15.40
2019,08,05,05,47,15.40
2019,08,05,05,48,15.30
2019,08,05,05,49,15.30
2019,08,05,05,50,15.30
2019,08,05,05,51,15.30
2019,08,05,05,52,15.30
2019,08,05,05,53,15.30
2019,08,05,05,54,15.30
2019,08,05,05,55,15.30
2019,08,05,05,56,15.30
2019,08,05,05,57,15.30
2019,08,05,05,58,15.30
2019,08,05,05,59,15.30
2019,08,05,06,00,15.30
2019,08,05,06,01,15.30
2019,08,05,06,02,15.30
2019,08,05,06,03,15.30
2019,08,05,06,04,15.20
2019,08,05,06,05,15.20
2019,08,05,06,06,15.20
2019,08,05,06,07,15.20
2019,08,05,06,08,15.20
2019,08,05,06,09,15.20
2019,08,05,06,10,15.20
2019,08,05,06,11,15.20
2019,08,05,06,12,15.20
2019,08,05,06,13,15.20
2019,08,05,06,14,15.20
2019,08,05,06,15,15.20
2019,08,05,06,16,15.10
2019,08,05,06,17,15.10
2019,08,05,06,18,15.10
2019,08,05,06,19,15.10
2019,08,05,06,20,15.10
2019,08,05,06,21,15.10
2019,08,05,06,22,15.10
2019,08,05,06,23,15.10
2019,08,05,06,24,15.10
2019,08,05,06,25,15.10
2019,08,05,06,26,15.20
2019,08,05,06,27,15.20
2019,08,05,06,28,15.20
2019,08,05,06,29,15.20
2019,08,05,06,30,15.20
2019,08,05,06,31,15.20
2019,08,05,06,32,15.20
2019,08,05,06,33,15.20
2019,08,05,06,34,15.20
2019,08,05,06,35,15.20
2019,08,05,06,36,15.20
2019,08,05,06,37,15.30
2019,08,05,06,38,15.30
2019,08,05,06,39,15.30
2019,08,05,06,40,15.30
2019,08,05,06,41,15.30
2019,08,05,06,42,15.30
2019,08,05,06,43,15.30
2019,08,05,06,44,15.30
2019,08,05,06,45,15.30
2019,08,05,06,46,15.30
2019,08,05,06,47,15.30
2019,08,05,06,48,15.30
2019,08,05,06,49,15.30
2019,08,05,06,50,15.30
2019,08,05,06,51,15.30
2019,08,05,06,52,15.40
2019,08,05,06,53,15.40
2019,08,05,06,54,15.40
2019,08,05,06,55,15.40
2019,08,05,06,56,15.40
2019,08,05,06,57,15.40
2019,08,05,06,58,15.40
2019,08,05,06,59,15.40
2019,08,05,07,00,15.40
2019,08,05,07,01,15.40
2019,08,05,07,02,15.40
2019,08,05,07,03,15.40
2019,08,05,07,04,15.40
2019,08,05,07,05,15.40
2019,08,05,07,06,15.50
2019,08,05,07,07,15.50
2019,08,05,07,08,15.50
2019,08,05,07,09,15.50
2019,08,05,07,10,15.60
2019,08,05,07,11,15.60
2019,08,05,07,12,15.70
2019,08,05,07,13,15.80
2019,08,05,07,14,15.90
2019,08,05,07,15,16.00
2019,08,05,07,16,16.10
2019,08,05,07,17,16.20
2019,08,05,07,18,16.30
2019,08,05,07,19,16.50
2019,08,05,07,20,16.60
2019,08,05,07,21,16.70
2019,08,05,07,22,16.80
2019,08,05,07,23,17.00
2019,08,05,07,24,17.10
2019,08,05,07,25,17.30
2019,08,05,07,26,17.40
2019,08,05,07,27,17.50
2019,08,05,07,28,17.70
2019,08,05,07,29,17.80
2019,08,05,07,30,17.90
2019,08,05,07,31,18.10
2019,08,05,07,32,18.20
2019,08,05,07,33,18.30
2019,08,05,07,34,18.40
2019,08,05,07,35,18.60
2019,08,05,07,36,18.70
2019,08,05,07,37,18.80
2019,08,05,07,38,18.90
2019,08,05,07,39,19.10
2019,08,05,07,40,19.20
2019,08,05,07,41,19.30
2019,08,05,07,42,19.40
2019,08,05,07,43,19.50
2019,08,05,07,44,19.60
2019,08,05,07,45,19.70
2019,08,05,07,46,19.80
2019,08,05,07,47,20.00
2019,08,05,07,48,20.10
2019,08,05,07,49,20.20
2019,08,05,07,50,20.30
2019,08,05,07,51,20.40
2019,08,05,07,52,20.50
2019,08,05,07,53,20.70
2019,08,05,07,54,20.70
2019,08,05,07,55,20.80
2019,08,05,07,56,20.90
2019,08,05,07,57,21.00
2019,08,05,07,58,21.10
2019,08,05,07,59,21.20
2019,08,05,08,00,21.30
2019,08,05,08,01,21.40
2019,08,05,08,02,21.40
2019,08,05,08,03,21.50
2019,08,05,08,04,21.60
2019,08,05,08,05,21.70
2019,08,05,08,06,21.80
2019,08,05,08,07,21.80
2019,08,05,08,08,21.90
2019,08,05,08,09,21.90
2019,08,05,08,10,22.00
2019,08,05,08,11,22.00
2019,08,05,08,12,22.00
2019,08,05,08,13,22.00
2019,08,05,08,14,22.10
2019,08,05,08,15,22.10
2019,08,05,08,16,22.10
2019,08,05,08,17,22.10
2019,08,05,08,18,22.20
2019,08,05,08,19,22.20
2019,08,05,08,20,22.30
2019,08,05,08,21,22.40
2019,08,05,08,22,22.40
2019,08,05,08,23,22.50
2019,08,05,08,24,22.60
2019,08,05,08,25,22.60
2019,08,05,08,26,22.70
2019,08,05,08,27,22.70
2019,08,05,08,28,22.70
2019,08,05,08,29,22.80
2019,08,05,08,30,22.80
2019,08,05,08,31,22.90
2019,08,05,08,32,22.90
2019,08,05,08,33,22.90
2019,08,05,08,34,22.90
2019,08,05,08,35,23.00
2019,08,05,08,36,23.00
2019,08,05,08,37,23.10
2019,08,05,08,38,23.10
2019,08,05,08,39,23.10
2019,08,05,08,40,23.10
2019,08,05,08,41,23.10
2019,08,05,08,42,23.10
2019,08,05,08,43,23.10
2019,08,05,08,44,23.10
2019,08,05,08,45,23.20
2019,08,05,08,46,23.20
2019,08,05,08,47,23.20
2019,08,05,08,48,23.30
2019,08,05,08,49,23.30
2019,08,05,08,50,23.40
2019,08,05,08,51,23.50
2019,08,05,08,52,23.50
2019,08,05,08,53,23.50
2019,08,05,08,54,23.50
2019,08,05,08,55,23.50
2019,08,05,08,56,23.50
2019,08,05,08,57,23.40
2019,08,05,08,58,23.40
2019,08,05,08,59,23.40
2019,08,05,09,00,23.40
2019,08,05,09,01,23.50
2019,08,05,09,02,23.50
2019,08,05,09,03,23.50
2019,08,05,09,04,23.50
2019,08,05,09,05,23.50
2019,08,05,09,06,23.50
2019,08,05,09,07,23.50
2019,08,05,09,08,23.50
2019,08,05,09,09,23.40
2019,08,05,09,10,23.40
2019,08,05,09,11,23.40
2019,08,05,09,12,23.40
2019,08,05,09,13,23.40
2019,08,05,09,14,23.40
2019,08,05,09,15,23.40
2019,08,05,09,16,23.40
2019,08,05,09,17,23.50
2019,08,05,09,18,23.50
2019,08,05,09,19,23.50
2019,08,05,09,20,23.60
2019,08,05,09,21,23.60
2019,08,05,09,22,23.60
2019,08,05,09,23,23.70
2019,08,05,09,24,23.80
2019,08,05,09,25,23.80
2019,08,05,09,26,23.90
2019,08,05,09,27,24.00
2019,08,05,09,28,24.10
2019,08,05,09,29,24.10
2019,08,05,09,30,24.20
2019,08,05,09,31,24.20
2019,08,05,09,32,24.20
2019,08,05,09,33,24.30
2019,08,05,09,34,24.30
2019,08,05,09,35,24.30
2019,08,05,09,36,24.40
2019,08,05,09,37,24.40
2019,08,05,09,38,24.40
2019,08,05,09,39,24.40
2019,08,05,09,40,24.40
2019,08,05,09,41,24.30
2019,08,05,09,42,24.30
2019,08,05,09,43,24.30
2019,08,05,09,44,24.20
2019,08,05,09,45,24.20
2019,08,05,09,46,24.20
2019,08,05,09,47,24.20
2019,08,05,09,48,24.20
2019,08,05,09,49,24.20
2019,08,05,09,50,24.20
2019,08,05,09,51,24.20
2019,08,05,09,52,24.20
2019,08,05,09,53,24.30
2019,08,05,09,54,24.30
2019,08,05,09,55,24.40
2019,08,05,09,56,24.40
2019,08,05,09,57,24.40
2019,08,05,09,58,24.50
2019,08,05,09,59,24.50
2019,08,05,10,00,24.60
2019,08,05,10,01,24.60
2019,08,05,10,02,24.70
2019,08,05,10,03,24.70
2019,08,05,10,04,24.70
2019,08,05,10,05,24.70
2019,08,05,10,06,24.70
2019,08,05,10,07,24.80
2019,08,05,10,08,24.80
2019,08,05,10,09,24.80
2019,08,05,10,10,24.90
2019,08,05,10,11,24.90
2019,08,05,10,12,25.00
2019,08,05,10,13,25.00
2019,08,05,10,14,25.10
2019,08,05,10,15,25.10
2019,08,05,10,16,25.20
2019,08,05,10,17,25.20
2019,08,05,10,18,25.20
2019,08,05,10,19,25.20
2019,08,05,10,20,25.20
2019,08,05,10,21,25.20
2019,08,05,10,22,25.20
2019,08,05,10,23,25.20
2019,08,05,10,24,25.20
2019,08,05,10,25,25.10
2019,08,05,10,26,25.10
2019,08,05,10,27,25.10
2019,08,05,10,28,25.10
2019,08,05,10,29,25.00
2019,08,05,10,30,25.00
2019,08,05,10,31,24.90
2019,08,05,10,32,24.90
2019,08,05,10,33,24.90
2019,08,05,10,34,24.80
2019,08,05,10,35,24.80
2019,08,05,10,36,24.80
2019,08,05,10,37,24.80
2019,08,05,10,38,24.80
2019,08,05,10,39,24.80
2019,08,05,10,40,24.80
2019,08,05,10,41,24.80
2019,08,05,10,42,24.80
2019,08,05,10,43,24.80
2019,08,05,10,44,24.90
2019,08,05,10,45,24.90
2019,08,05,10,46,25.00
2019,08,05,10,47,25.00
2019,08,05,10,48,25.10
2019,08,05,10,49,25.20
2019,08,05,10,50,25.20
2019,08,05,10,51,25.20
2019,08,05,10,52,25.20
2019,08,05,10,53,25.20
2019,08,05,10,54,25.20
2019,08,05,10,55,25.20
2019,08,05,10,56,25.20
2019,08,05,10,57,25.20
2019,08,05,10,58,25.20
2019,08,05,10,59,25.20
2019,08,05,11,00,25.20
2019,08,05,11,01,25.20
2019,08,05,11,02,25.10
2019,08,05,11,03,25.10
2019,08,05,11,04,25.00
2019,08,05,11,05,25.00
2019,08,05,11,06,25.00
2019,08,05,11,07,25.00
2019,08,05,11,08,25.00
2019,08,05,11,09,24.90
2019,08,05,11,10,24.90
2019,08,05,11,11,24.80
2019,08,05,11,12,24.80
2019,08,05,11,13,24.80
2019,08,05,11,14,24.80
2019,08,05,11,15,24.80
2019,08,05,11,16,24.90
2019,08,05,11,17,24.90
2019,08,05,11,18,25.00
2019,08,05,11,19,25.00
2019,08,05,11,20,25.10
2019,08,05,11,21,25.20
2019,08,05,11,22,25.20
2019,08,05,11,23,25.30
2019,08,05,11,24,25.40
2019,08,05,11,25,25.40
2019,08,05,11,26,25.50
2019,08,05,11,27,25.60
2019,08,05,11,28,25.60
2019,08,05,11,29,25.60
2019,08,05,11,30,25.60
2019,08,05,11,31,25.60
2019,08,05,11,32,25.70
2019,08,05,11,33,25.70
2019,08,05,11,34,25.70
2019,08,05,11,35,25.80
2019,08,05,11,36,25.80
2019,08,05,11,37,25.80
2019,08,05,11,38,25.90
2019,08,05,11,39,25.90
2019,08,05,11,40,25.90
2019,08,05,11,41,25.90
2019,08,05,11,42,25.90
2019,08,05,11,43,25.90
2019,08,05,11,44,25.90
2019,08,05,11,45,25.90
2019,08,05,11,46,25.90
2019,08,05,11,47,25.90
2019,08,05,11,48,25.90
2019,08,05,11,49,25.90
2019,08,05,11,50,25.90
2019,08,05,11,51,25.90
2019,08,05,11,52,25.90
2019,08,05,11,53,25.90
2019,08,05,11,54,26.00
2019,08,05,11,55,26.00
2019,08,05,11,56,26.00
2019,08,05,11,57,26.10
2019,08,05,11,58,26.10
2019,08,05,11,59,26.10
2019,08,05,12,00,26.10
2019,08,05,12,01,26.20
2019,08,05,12,02,26.20
2019,08,05,12,03,26.20
2019,08,05,12,04,26.30
2019,08,05,12,05,26.30
2019,08,05,12,06,26.30
2019,08,05,12,07,26.30
2019,08,05,12,08,26.30
2019,08,05,12,09,26.40
2019,08,05,12,10,26.40
2019,08,05,12,11,26.40
2019,08,05,12,12,26.40
2019,08,05,12,13,26.40
2019,08,05,12,14,26.40
2019,08,05,12,15,26.50
2019,08,05,12,16,26.50
2019,08,05,12,17,26.60
2019,08,05,12,18,26.60
2019,08,05,12,19,26.70
2019,08,05,12,20,26.80
2019,08,05,12,21,26.80
2019,08,05,12,22,26.80
2019,08,05,12,23,26.90
2019,08,05,12,24,26.90
2019,08,05,12,25,26.90
2019,08,05,12,26,26.80
2019,08,05,12,27,26.80
2019,08,05,12,28,26.80
2019,08,05,12,29,26.80
2019,08,05,12,30,26.80
2019,08,05,12,31,26.90
2019,08,05,12,32,26.90
2019,08,05,12,33,26.90
2019,08,05,12,34,27.00
2019,08,05,12,35,27.10
2019,08,05,12,36,27.10
2019,08,05,12,37,27.10
2019,08,05,12,38,27.20
2019,08,05,12,39,27.20
2019,08,05,12,40,27.20
2019,08,05,12,41,27.20
2019,08,05,12,42,27.20
2019,08,05,12,43,27.20
2019,08,05,12,44,27.20
2019,08,05,12,45,27.20
2019,08,05,12,46,27.20
2019,08,05,12,47,27.20
2019,08,05,12,48,27.10
2019,08,05,12,49,27.10
2019,08,05,12,50,27.10
2019,08,05,12,51,27.10
2019,08,05,12,52,27.10
2019,08,05,12,53,27.10
2019,08,05,12,54,27.10
2019,08,05,12,55,27.10
2019,08,05,12,56,27.10
2019,08,05,12,57,27.10
2019,08,05,12,58,27.10
2019,08,05,12,59,27.10
2019,08,05,13,00,27.10
2019,08,05,13,01,27.20
2019,08,05,13,02,27.20
2019,08,05,13,03,27.20
2019,08,05,13,04,27.20
2019,08,05,13,05,27.20
2019,08,05,13,06,27.20
2019,08,05,13,07,27.20
2019,08,05,13,08,27.20
2019,08,05,13,09,27.20
2019,08,05,13,10,27.20
2019,08,05,13,11,27.20
2019,08,05,13,12,27.20
2019,08,05,13,13,27.20
2019,08,05,13,14,27.20
2019,08,05,13,15,27.20
2019,08,05,13,16,27.20
2019,08,05,13,17,27.20
2019,08,05,13,18,27.10
2019,08,05,13,19,27.10
2019,08,05,13,20,27.10
2019,08,05,13,21,27.10
2019,08,05,13,22,27.00
2019,08,05,13,23,27.00
2019,08,05,13,24,27.00
2019,08,05,13,25,27.00
2019,08,05,13,26,27.00
2019,08,05,13,27,27.10
2019,08,05,13,28,27.10
2019,08,05,13,29,27.10
2019,08,05,13,30,27.20
2019,08,05,13,31,27.20
2019,08,05,13,32,27.30
2019,08,05,13,33,27.30
2019,08,05,13,34,27.40
2019,08,05,13,35,27.40
2019,08,05,13,36,27.40
2019,08,05,13,37,27.50
2019,08,05,13,38,27.50
2019,08,05,13,39,27.50
2019,08,05,13,40,27.50
2019,08,05,13,41,27.40
2019,08,05,13,42,27.40
2019,08,05,13,43,27.30
2019,08,05,13,44,27.30
2019,08,05,13,45,27.30
2019,08,05,13,46,27.30
2019,08,05,13,47,27.20
2019,08,05,13,48,27.20
2019,08,05,13,49,27.20
2019,08,05,13,50,27.20
2019,08,05,13,51,27.10
2019,08,05,13,52,27.00
2019,08,05,13,53,26.90
2019,08,05,13,54,26.90
2019,08,05,13,55,26.80
2019,08,05,13,56,26.70
2019,08,05,13,57,26.70
2019,08,05,13,58,26.70
2019,08,05,13,59,26.60
2019,08,05,14,00,26.60
2019,08,05,14,01,26.60
2019,08,05,14,02,26.60
2019,08,05,14,03,26.60
2019,08,05,14,04,26.60
2019,08,05,14,05,26.60
2019,08,05,14,06,26.60
2019,08,05,14,07,26.70
2019,08,05,14,08,26.70
2019,08,05,14,09,26.80
2019,08,05,14,10,26.80
2019,08,05,14,11,26.80
2019,08,05,14,12,26.90
2019,08,05,14,13,26.90
2019,08,05,14,14,26.90
2019,08,05,14,15,26.90
2019,08,05,14,16,26.90
2019,08,05,14,17,26.90
2019,08,05,14,18,26.90
2019,08,05,14,19,26.90
2019,08,05,14,20,26.90
2019,08,05,14,21,26.90
2019,08,05,14,22,27.00
2019,08,05,14,23,27.00
2019,08,05,14,24,27.00
2019,08,05,14,25,27.10
2019,08,05,14,26,27.10
2019,08,05,14,27,27.10
2019,08,05,14,28,27.10
2019,08,05,14,29,27.10
2019,08,05,14,30,27.10
2019,08,05,14,31,27.10
2019,08,05,14,32,27.10
2019,08,05,14,33,27.10
2019,08,05,14,34,27.10
2019,08,05,14,35,27.10
2019,08,05,14,36,27.10
2019,08,05,14,37,27.10
2019,08,05,14,38,27.10
2019,08,05,14,39,27.00
2019,08,05,14,40,27.00
2019,08,05,14,41,26.90
2019,08,05,14,42,26.90
2019,08,05,14,43,26.90
2019,08,05,14,44,27.00
2019,08,05,14,45,27.00
2019,08,05,14,46,27.00
2019,08,05,14,47,27.10
2019,08,05,14,48,27.10
2019,08,05,14,49,27.10
2019,08,05,14,50,27.10
2019,08,05,14,51,27.10
2019,08,05,14,52,27.10
2019,08,05,14,53,27.20
2019,08,05,14,54,27.20
2019,08,05,14,55,27.20
2019,08,05,14,56,27.30
2019,08,05,14,57,27.30
2019,08,05,14,58,27.30
2019,08,05,14,59,27.30
2019,08,05,15,00,27.30
2019,08,05,15,01,27.30
2019,08,05,15,02,27.30
2019,08,05,15,03,27.30
2019,08,05,15,04,27.30
2019,08,05,15,05,27.40
2019,08,05,15,06,27.40
2019,08,05,15,07,27.40
2019,08,05,15,08,27.50
2019,08,05,15,09,27.50
2019,08,05,15,10,27.50
2019,08,05,15,11,27.50
2019,08,05,15,12,27.50
2019,08,05,15,13,27.50
2019,08,05,15,14,27.60
2019,08,05,15,15,27.60
2019,08,05,15,16,27.60
2019,08,05,15,17,27.70
2019,08,05,15,18,27.70
2019,08,05,15,19,27.60
2019,08,05,15,20,27.60
2019,08,05,15,21,27.60
2019,08,05,15,22,27.60
2019,08,05,15,23,27.60
2019,08,05,15,24,27.60
2019,08,05,15,25,27.60
2019,08,05,15,26,27.60
2019,08,05,15,27,27.60
2019,08,05,15,28,27.60
2019,08,05,15,29,27.60
2019,08,05,15,30,27.60
2019,08,05,15,31,27.60
2019,08,05,15,32,27.50
2019,08,05,15,33,27.60
2019,08,05,15,34,27.50
2019,08,05,15,35,27.50
2019,08,05,15,36,27.50
2019,08,05,15,37,27.50
2019,08,05,15,38,27.50
2019,08,05,15,39,27.40
2019,08,05,15,40,27.40
2019,08,05,15,41,27.40
2019,08,05,15,42,27.40
2019,08,05,15,43,27.40
2019,08,05,15,44,27.50
2019,08,05,15,45,27.50
2019,08,05,15,46,27.50
2019,08,05,15,47,27.50
2019,08,05,15,48,27.60
2019,08,05,15,49,27.60
2019,08,05,15,50,27.60
2019,08,05,15,51,27.70
2019,08,05,15,52,27.70
2019,08,05,15,53,27.70
2019,08,05,15,54,27.70
2019,08,05,15,55,27.70
2019,08,05,15,56,27.80
2019,08,05,15,57,27.80
2019,08,05,15,58,27.80
2019,08,05,15,59,27.80
2019,08,05,16,00,27.80
2019,08,05,16,01,27.80
2019,08,05,16,02,27.80
2019,08,05,16,03,27.80
2019,08,05,16,04,27.80
2019,08,05,16,05,27.80
2019,08,05,16,06,27.80
2019,08,05,16,07,27.80
2019,08,05,16,08,27.80
2019,08,05,16,09,27.80
2019,08,05,16,10,27.80
2019,08,05,16,11,27.80
2019,08,05,16,12,27.90
2019,08,05,16,13,27.90
2019,08,05,16,14,27.90
2019,08,05,16,15,27.90
2019,08,05,16,16,27.90
2019,08,05,16,17,27.90
2019,08,05,16,18,27.90
2019,08,05,16,19,28.00
2019,08,05,16,20,28.10
2019,08,05,16,21,28.10
2019,08,05,16,22,28.20
2019,08,05,16,23,28.20
2019,08,05,16,24,28.20
2019,08,05,16,25,28.20
2019,08,05,16,26,28.20
2019,08,05,16,27,28.30
2019,08,05,16,28,28.30
2019,08,05,16,29,28.30
2019,08,05,16,30,28.30
2019,08,05,16,31,28.40
2019,08,05,16,32,28.40
2019,08,05,16,33,28.40
2019,08,05,16,34,28.40
2019,08,05,16,35,28.40
2019,08,05,16,36,28.40
2019,08,05,16,37,28.40
2019,08,05,16,38,28.40
2019,08,05,16,39,28.40
2019,08,05,16,40,28.30
2019,08,05,16,41,28.30
2019,08,05,16,42,28.30
2019,08,05,16,43,28.20
2019,08,05,16,44,28.20
2019,08,05,16,45,28.20
2019,08,05,16,46,28.20
2019,08,05,16,47,28.10
2019,08,05,16,48,28.10
2019,08,05,16,49,28.10
2019,08,05,16,50,28.20
2019,08,05,16,51,28.20
2019,08,05,16,52,28.20
2019,08,05,16,53,28.20
2019,08,05,16,54,28.20
2019,08,05,16,55,28.20
2019,08,05,16,56,28.20
2019,08,05,16,57,28.20
2019,08,05,16,58,28.20
2019,08,05,16,59,28.30
2019,08,05,17,00,28.30
2019,08,05,17,01,28.30
2019,08,05,17,02,28.30
2019,08,05,17,03,28.30
2019,08,05,17,04,28.30
2019,08,05,17,05,28.30
2019,08,05,17,06,28.40
2019,08,05,17,07,28.40
2019,08,05,17,08,28.40
2019,08,05,17,09,28.50
2019,08,05,17,10,28.50
2019,08,05,17,11,28.50
2019,08,05,17,12,28.50
2019,08,05,17,13,28.50
2019,08,05,17,14,28.50
2019,08,05,17,15,28.50
2019,08,05,17,16,28.50
2019,08,05,17,17,28.50
2019,08,05,17,18,28.50
2019,08,05,17,19,28.50